User: anonymous   Login
Location: Calvatone
(45.1167°N, 10.4333°E)
Time: 23:29:15
(UTC+00:00)
Language:

BlueWalker 3 - Orbit

View from above orbital plane
View from above orbital plane
View from above satellite
View from above satellite

Ground track
Ground track

The orbit data is extracted from the following two-line orbital elements,

1 53807U 22111AL  24151.57964673  .00005809  00000-0  23618-3 0  9995
2 53807  53.2355 274.7540 0009615  47.6546 312.5267 15.25959095 95549
Epoch (UTC): 30 May 2024 13:54:41
Eccentricity: 0.0009615
inclination: 53.2355°
perigee height: 481 km
apogee height: 494 km
right ascension of ascending node: 274.7540°
argument of perigee: 47.6546°
revolutions per day: 15.25959095
mean anomaly at epoch: 312.5267°
orbit number at epoch: 9554

The dashed part of the orbit path shows where the satellite is in the earth's shadow,  

DLR